Weather History for KMFI - December, 2013

Change the Weather History Date:

Saturday, December 7, 2013

  Actual Average Record
Temperature  
Mean Temperature -3 °F -  
Max Temperature 3 °F 28 °F 50 °F (1916)
Min Temperature -9 °F 12 °F -26 °F (1972)
Degree Days  
Heating Degree Days 68    
Moisture  
Dew Point -10 °F    
Average Humidity 73    
Maximum Humidity 83    
Minimum Humidity 58    
Precipitation  
Precipitation 0.00 in - - ()
Sea Level Pressure  
Sea Level Pressure 30.67 in    
Wind  
Wind Speed 6 mph (West)    
Max Wind Speed 12 mph    
Max Gust Speed -    
Visibility 10 miles    
Events      
Averages and records for this station are not official NWS values.
T = Trace of Precipitation, MM = Missing Value Source: NWS Daily Summary

Daily Weather History Graph

Daily Weather History Graph

Search for Another Location

Airport or City:

Trip Planner

Search our weather history database for the weather conditions in past years. The results will help you decide how hot, cold, wet, or windy it might be!

Date:

Astronomy

Dec. 07, 2013 Rise Set
Actual Time 7:24 AM CST 4:20 PM CST
Civil Twilight 6:50 AM CST 4:53 PM CST
Nautical Twilight 6:14 AM CST 5:30 PM CST
Astronomical Twilight 5:38 AM CST 6:05 PM CST
Moon 11:00 AM CST (12/7) 10:11 PM CST (12/7)
Length of Visible Light 10h 02m
Length of Day
8h 56m
Waxing Crescent, 29% of the Moon is Illuminated
Dec 7
Waxing Crescent
Dec 9
First Quarter
Dec 17
Full
Dec 25
Last Quarter
Jan 1
New

Hourly Weather History & Observations

Time (CST) Temp. Windchill Dew Point Humidity Pressure Visibility Wind Dir Wind Speed Gust Speed Precip Events Conditions
12:54 AM -4.0 °F -17.8 °F -9.9 °F 76% 30.61 in 10.0 mi West 6.9 mph - N/A   Clear
1:54 AM -5.1 °F -17.6 °F -9.9 °F 80% 30.62 in 10.0 mi West 5.8 mph - N/A   Clear
2:54 AM -6.0 °F -21.5 °F -11.0 °F 79% 30.64 in 10.0 mi West 8.1 mph - N/A   Clear
3:54 AM -6.0 °F -21.5 °F -11.9 °F 75% 30.65 in 10.0 mi WNW 8.1 mph - N/A   Clear
4:54 AM -7.1 °F -19.9 °F -11.9 °F 79% 30.66 in 10.0 mi West 5.8 mph - N/A   Clear
5:54 AM -8.0 °F -21.0 °F -13.0 °F 79% 30.67 in 10.0 mi WNW 5.8 mph - N/A   Clear
6:54 AM -9.0 °F -20.4 °F -14.1 °F 79% 30.69 in 10.0 mi West 4.6 mph - N/A   Clear
7:54 AM -9.0 °F -23.8 °F -14.1 °F 79% 30.69 in 10.0 mi West 6.9 mph - N/A   Clear
8:54 AM -8.0 °F -26.1 °F -13.0 °F 79% 30.72 in 10.0 mi West 10.4 mph - N/A   Clear
9:54 AM -6.0 °F -24.6 °F -11.9 °F 75% 30.74 in 10.0 mi West 11.5 mph - N/A   Clear
10:54 AM -4.0 °F -19.0 °F -11.0 °F 72% 30.73 in 10.0 mi West 8.1 mph - N/A   Clear
11:54 AM -2.0 °F -16.6 °F -9.9 °F 69% 30.71 in 10.0 mi West 8.1 mph - N/A   Clear
12:54 PM 1.0 °F -11.7 °F -9.0 °F 63% 30.69 in 10.0 mi West 6.9 mph - N/A   Clear
1:54 PM 3.0 °F -9.3 °F -8.0 °F 60% 30.68 in 10.0 mi West 6.9 mph - N/A   Clear
2:54 PM 3.9 °F -6.9 °F -8.0 °F 58% 30.68 in 10.0 mi WSW 5.8 mph - N/A   Clear
3:54 PM 3.9 °F -9.4 °F -8.0 °F 58% 30.68 in 10.0 mi WSW 8.1 mph - N/A   Clear
4:54 PM 1.9 °F -9.2 °F -8.0 °F 63% 30.68 in 10.0 mi West 5.8 mph - N/A   Clear
5:54 PM -0.0 °F -9.9 °F -9.0 °F 66% 30.68 in 10.0 mi West 4.6 mph - N/A   Clear
6:54 PM -0.0 °F -7.9 °F -8.0 °F 69% 30.66 in 10.0 mi West 3.5 mph - N/A   Clear
7:54 PM -2.0 °F -10.1 °F -9.9 °F 69% 30.64 in 10.0 mi NNW 3.5 mph - N/A   Clear
8:54 PM -5.1 °F -13.6 °F -9.9 °F 80% 30.64 in 10.0 mi SW 3.5 mph - N/A   Clear
9:54 PM -5.1 °F - -9.9 °F 80% 30.64 in 10.0 mi Calm Calm - N/A   Clear
10:54 PM -5.1 °F - -9.0 °F 83% 30.63 in 10.0 mi Calm Calm - N/A   Clear
11:54 PM -4.0 °F -14.6 °F -9.0 °F 79% 30.63 in 10.0 mi WNW 4.6 mph - N/A   Clear